Terminal Aerodrome Forecast
Issued by NWS

Home | Current Version | Previous Version | Text Only | Print | Product List | Glossary On
Versions: 1 2 3 4 5 6 7 8 9 10 11 12
000
FTUS45 KRIW 241700
TAFJAC
TAF
KJAC 241720Z 2418/2518 36008KT P6SM VCFG SCT004 BKN060
     FM242100 34006KT P6SM VCSH SCT020 BKN040
     FM242300 35006KT 6SM -RA BR OVC020
     FM250900 36005KT P6SM VCSH SCT010 BKN025
     FM251700 VRB06KT P6SM SCT025 BKN060
      AMD LTD TO CLD VIS AND WIND=

USA.gov is the U.S. government's official web portal to all federal, state and local government web resources and services.